| time (UTC) | temp F | wind direction | speed MPH | gust MPH | rain 1hr in | rain 24hr in | rain mn in | humidity % | barometer mb |
| 20260507014157 | 58 | 258 | 0.0 | 0.0 | 0.01 | 0.15 | 0.15 | 89 | 1009.3 |
| 20260507013157 | 58 | 257 | 0.0 | 0.0 | 0.02 | 0.15 | 0.15 | 89 | 1009.1 |
| 20260507012157 | 58 | 259 | 0.0 | 8.0 | 0.02 | 0.15 | 0.15 | 89 | 1009.0 |
| 20260507011157 | 58 | 243 | 5.0 | 8.0 | 0.02 | 0.15 | 0.15 | 90 | 1008.9 |
| 20260507010157 | 58 | 216 | 7.0 | 7.0 | 0.02 | 0.15 | 0.15 | 90 | 1008.9 |
| 20260507004156 | 58 | 191 | 0.0 | 7.0 | 0.01 | 0.14 | 0.14 | 89 | 1008.4 |
| 20260507003157 | 58 | 189 | 0.0 | 8.0 | 0.00 | 0.13 | 0.13 | 89 | 1008.3 |
| 20260507002157 | 58 | 181 | 1.0 | 5.0 | 0.00 | 0.13 | 0.13 | 89 | 1008.3 |
| 20260507001157 | 58 | 179 | 0.0 | 5.0 | 0.00 | 0.13 | 0.13 | 89 | 1008.2 |
| 20260507000157 | 58 | 178 | 0.0 | 6.0 | 0.00 | 0.13 | 0.13 | 89 | 1008.0 |
| 20260506235157 | 58 | 171 | 3.0 | 7.0 | 0.00 | 0.13 | 0.13 | 89 | 1007.9 |
| 20260506234157 | 58 | 212 | 1.0 | 8.0 | 0.00 | 0.13 | 0.13 | 89 | 1008.0 |
| 20260506233157 | 58 | 196 | 7.0 | 8.0 | 0.00 | 0.13 | 0.13 | 89 | 1007.9 |
| 20260506232157 | 58 | 193 | 0.0 | 6.0 | 0.00 | 0.13 | 0.13 | 89 | 1007.8 |
| 20260506231157 | 58 | 199 | 0.0 | 7.0 | 0.00 | 0.13 | 0.13 | 89 | 1007.5 |
| 20260506230157 | 58 | 204 | 7.0 | 9.0 | 0.00 | 0.13 | 0.13 | 89 | 1007.7 |
| 20260506225157 | 58 | 196 | 0.0 | 9.0 | 0.00 | 0.13 | 0.13 | 89 | 1007.6 |
| 20260506224156 | 58 | 198 | 1.0 | 8.0 | 0.00 | 0.13 | 0.13 | 89 | 1007.7 |
| 20260506223156 | 58 | 202 | 0.0 | 11.0 | 0.00 | 0.13 | 0.13 | 89 | 1007.7 |
| 20260506220157 | 58 | 198 | 0.0 | 9.0 | 0.00 | 0.13 | 0.13 | 89 | 1007.8 |
| 20260506215156 | 58 | 200 | 0.0 | 11.0 | 0.00 | 0.13 | 0.13 | 88 | 1007.8 |
| 20260506214156 | 58 | 227 | 0.0 | 11.0 | 0.00 | 0.13 | 0.13 | 88 | 1007.8 |
| 20260506213156 | 58 | 202 | 0.0 | 9.0 | 0.01 | 0.13 | 0.13 | 88 | 1007.9 |
| 20260506212156 | 58 | 183 | 0.0 | 9.0 | 0.01 | 0.13 | 0.13 | 88 | 1007.8 |
| 20260506211157 | 58 | 189 | 1.0 | 8.0 | 0.02 | 0.13 | 0.13 | 88 | 1007.8 |
| 20260506210156 | 58 | 174 | 3.0 | 10.0 | 0.03 | 0.13 | 0.13 | 88 | 1007.6 |
| 20260506205157 | 58 | 210 | 0.0 | 9.0 | 0.05 | 0.13 | 0.13 | 88 | 1007.6 |
| 20260506204157 | 59 | 199 | 0.0 | 12.0 | 0.06 | 0.13 | 0.13 | 88 | 1007.6 |
| 20260506203156 | 59 | 185 | 0.0 | 12.0 | 0.05 | 0.12 | 0.12 | 88 | 1008.0 |
| 20260506201157 | 59 | 193 | 2.0 | 10.0 | 0.06 | 0.11 | 0.11 | 88 | 1008.2 |
| 20260506200156 | 60 | 203 | 6.0 | 11.0 | 0.06 | 0.10 | 0.10 | 88 | 1008.1 |
| 20260506195157 | 60 | 199 | 0.0 | 10.0 | 0.04 | 0.08 | 0.08 | 88 | 1008.2 |
| 20260506193156 | 60 | 187 | 3.0 | 8.0 | 0.04 | 0.07 | 0.07 | 87 | 1008.4 |
| 20260506192157 | 60 | 192 | 0.0 | 11.0 | 0.04 | 0.06 | 0.06 | 87 | 1008.5 |
| 20260506191156 | 60 | 192 | 0.0 | 10.0 | 0.03 | 0.05 | 0.05 | 86 | 1008.6 |
| 20260506190157 | 60 | 184 | 0.0 | 8.0 | 0.03 | 0.04 | 0.04 | 86 | 1008.5 |
| 20260506185156 | 60 | 188 | 2.0 | 8.0 | 0.03 | 0.04 | 0.04 | 86 | 1008.5 |
| 20260506183156 | 61 | 143 | 3.0 | 15.0 | 0.03 | 0.03 | 0.03 | 84 | 1008.6 |
| 20260506182157 | 61 | 179 | 3.0 | 8.0 | 0.02 | 0.02 | 0.02 | 84 | 1008.5 |
| 20260506180157 | 62 | 194 | 0.0 | 11.0 | 0.01 | 0.01 | 0.01 | 83 | 1009.1 |
| 20260506175157 | 62 | 191 | 0.0 | 9.0 | 0.01 | 0.01 | 0.01 | 82 | 1009.3 |
| 20260506174157 | 62 | 179 | 0.0 | 5.0 | 0.00 | 0.00 | 0.00 | 81 | 1009.4 |
| 20260506173157 | 63 | 195 | 0.0 | 5.0 | 0.00 | 0.00 | 0.00 | 80 | 1009.7 |
| 20260506171157 | 64 | 188 | 0.0 | 8.0 | 0.00 | 0.00 | 0.00 | 75 | 1009.9 |
| 20260506170157 | 65 | 208 | 1.0 | 8.0 | 0.00 | 0.00 | 0.00 | 73 | 1009.8 |
| 20260506165157 | 65 | 192 | 5.0 | 9.0 | 0.00 | 0.00 | 0.00 | 72 | 1009.7 |
| 20260506164157 | 65 | 197 | 0.0 | 9.0 | 0.00 | 0.00 | 0.00 | 72 | 1009.8 |
| 20260506163157 | 65 | 182 | 5.0 | 10.0 | 0.00 | 0.00 | 0.00 | 72 | 1009.9 |
| 20260506162157 | 65 | 162 | 2.0 | 10.0 | 0.00 | 0.00 | 0.00 | 72 | 1010.0 |
| 20260506161157 | 65 | 173 | 2.0 | 12.0 | 0.00 | 0.00 | 0.00 | 72 | 1010.1 |
| 20260506160157 | 64 | 181 | 5.0 | 12.0 | 0.00 | 0.00 | 0.00 | 72 | 1010.2 |
| 20260506153157 | 64 | 187 | 0.0 | 11.0 | 0.00 | 0.00 | 0.00 | 73 | 1010.7 |
| 20260506152156 | 64 | 195 | 8.0 | 11.0 | 0.00 | 0.00 | 0.00 | 73 | 1010.7 |
| 20260506150157 | 64 | 183 | 3.0 | 11.0 | 0.00 | 0.00 | 0.00 | 73 | 1011.0 |
| 20260506145157 | 64 | 191 | 2.0 | 13.0 | 0.00 | 0.00 | 0.00 | 73 | 1011.2 |
| 20260506143157 | 65 | 185 | 0.0 | 9.0 | 0.00 | 0.00 | 0.00 | 72 | 1011.0 |
| 20260506141157 | 64 | 164 | 2.0 | 11.0 | 0.00 | 0.00 | 0.00 | 73 | 1011.0 |
| 20260506140157 | 64 | 201 | 5.0 | 15.0 | 0.00 | 0.00 | 0.00 | 74 | 1010.9 |
| 20260506135157 | 63 | 170 | 0.0 | 12.0 | 0.00 | 0.00 | 0.00 | 74 | 1010.9 |
| 20260506134157 | 63 | 195 | 2.0 | 12.0 | 0.00 | 0.00 | 0.00 | 74 | 1010.8 |
| 20260506133156 | 63 | 184 | 3.0 | 12.0 | 0.00 | 0.00 | 0.00 | 75 | 1010.6 |
| 20260506132157 | 63 | 173 | 6.0 | 14.0 | 0.00 | 0.00 | 0.00 | 75 | 1010.9 |
| 20260506131157 | 62 | 191 | 1.0 | 12.0 | 0.00 | 0.00 | 0.00 | 75 | 1010.9 |
| 20260506130157 | 62 | 155 | 7.0 | 15.0 | 0.00 | 0.00 | 0.00 | 75 | 1010.9 |
| 20260506125157 | 62 | 175 | 5.0 | 15.0 | 0.00 | 0.00 | 0.00 | 75 | 1011.2 |
| 20260506124157 | 62 | 190 | 0.0 | 10.0 | 0.00 | 0.00 | 0.00 | 76 | 1011.2 |
| 20260506123157 | 62 | 174 | 1.0 | 7.0 | 0.00 | 0.00 | 0.00 | 77 | 1011.2 |
| 20260506122157 | 61 | 179 | 0.0 | 11.0 | 0.00 | 0.00 | 0.00 | 77 | 1011.3 |
| 20260506120157 | 61 | 181 | 0.0 | 14.0 | 0.00 | 0.00 | 0.00 | 78 | 1011.1 |
| 20260506115157 | 60 | 169 | 4.0 | 10.0 | 0.00 | 0.00 | 0.00 | 78 | 1011.3 |
| 20260506114157 | 60 | 195 | 1.0 | 14.0 | 0.00 | 0.00 | 0.00 | 77 | 1011.5 |
| 20260506113157 | 60 | 168 | 0.0 | 12.0 | 0.00 | 0.00 | 0.00 | 77 | 1011.4 |
| 20260506112157 | 60 | 164 | 4.0 | 12.0 | 0.00 | 0.00 | 0.00 | 78 | 1011.4 |
| 20260506110157 | 59 | 193 | 0.0 | 14.0 | 0.00 | 0.00 | 0.00 | 78 | 1011.7 |
| 20260506105157 | 59 | 165 | 1.0 | 13.0 | 0.00 | 0.00 | 0.00 | 78 | 1011.6 |
| 20260506104157 | 59 | 188 | 0.0 | 16.0 | 0.00 | 0.00 | 0.00 | 78 | 1011.8 |
| 20260506103157 | 59 | 175 | 4.0 | 13.0 | 0.00 | 0.00 | 0.00 | 78 | 1011.6 |
| 20260506102157 | 59 | 195 | 1.0 | 12.0 | 0.00 | 0.00 | 0.00 | 78 | 1011.6 |
| 20260506101156 | 59 | 167 | 1.0 | 12.0 | 0.00 | 0.00 | 0.00 | 78 | 1011.5 |
| 20260506100157 | 59 | 170 | 4.0 | 14.0 | 0.00 | 0.00 | 0.00 | 78 | 1011.5 |
| 20260506095157 | 59 | 187 | 0.0 | 14.0 | 0.00 | 0.00 | 0.00 | 77 | 1011.5 |
| 20260506094156 | 59 | 156 | 2.0 | 13.0 | 0.00 | 0.00 | 0.00 | 77 | 1011.5 |
| 20260506092156 | 59 | 197 | 2.0 | 11.0 | 0.00 | 0.00 | 0.00 | 76 | 1011.6 |
| 20260506090156 | 59 | 191 | 0.0 | 13.0 | 0.00 | 0.00 | 0.00 | 76 | 1011.7 |
| 20260506085157 | 59 | 186 | 6.0 | 11.0 | 0.00 | 0.00 | 0.00 | 77 | 1011.8 |
| 20260506084156 | 59 | 159 | 0.0 | 3.0 | 0.00 | 0.00 | 0.00 | 76 | 1011.7 |
| 20260506083157 | 59 | 95 | 2.0 | 6.0 | 0.00 | 0.00 | 0.00 | 76 | 1011.8 |
| 20260506081157 | 59 | 163 | 0.0 | 11.0 | 0.00 | 0.00 | 0.00 | 76 | 1012.0 |
| 20260506080157 | 59 | 194 | 0.0 | 10.0 | 0.00 | 0.00 | 0.00 | 76 | 1012.1 |
| 20260506073156 | 59 | 193 | 0.0 | 6.0 | 0.00 | 0.00 | 0.00 | 75 | 1012.0 |
| 20260506072157 | 60 | 196 | 0.0 | 0.0 | 0.00 | 0.00 | 0.00 | 74 | 1012.0 |
| 20260506071157 | 60 | 195 | 0.0 | 6.0 | 0.00 | 0.00 | 0.00 | 74 | 1012.1 |
| 20260506070156 | 60 | 195 | 0.0 | 6.0 | 0.00 | 0.00 | 0.00 | 74 | 1012.1 |
| 20260506062157 | 61 | 187 | 0.0 | 5.0 | 0.00 | 0.00 | 0.00 | 72 | 1012.0 |
| 20260506061157 | 61 | 187 | 0.0 | 5.0 | 0.00 | 0.00 | 0.00 | 71 | 1012.0 |
| 20260506060156 | 62 | 186 | 0.0 | 5.0 | 0.00 | 0.00 | 0.00 | 70 | 1012.0 |
| 20260506051156 | 62 | 174 | 0.0 | 5.0 | 0.00 | 0.00 | 0.00 | 68 | 1012.0 |
| 20260506044157 | 63 | 185 | 0.0 | 9.0 | 0.00 | 0.00 | 0.00 | 67 | 1012.1 |
| 20260506043156 | 63 | 181 | 0.0 | 9.0 | 0.00 | 0.00 | 0.00 | 67 | 1012.2 |
| 20260506035156 | 63 | 190 | 0.0 | 10.0 | 0.00 | 0.00 | 0.00 | 65 | 1012.3 |
| 20260506034156 | 63 | 180 | 5.0 | 9.0 | 0.00 | 0.00 | 0.00 | 65 | 1012.2 |
| 20260506033157 | 63 | 192 | 1.0 | 10.0 | 0.00 | 0.00 | 0.00 | 65 | 1012.2 |
| 20260506032157 | 64 | 176 | 0.0 | 8.0 | 0.00 | 0.00 | 0.00 | 64 | 1012.2 |
| 20260506031157 | 64 | 179 | 0.0 | 10.0 | 0.00 | 0.00 | 0.00 | 63 | 1012.1 |
| 20260506030157 | 64 | 197 | 7.0 | 12.0 | 0.00 | 0.00 | 0.00 | 63 | 1012.3 |
| 20260506025157 | 64 | 188 | 0.0 | 12.0 | 0.00 | 0.00 | 0.00 | 63 | 1012.1 |
| 20260506024157 | 65 | 179 | 0.0 | 10.0 | 0.00 | 0.00 | 0.00 | 63 | 1012.0 |
| 20260506022156 | 65 | 199 | 1.0 | 5.0 | 0.00 | 0.00 | 0.00 | 63 | 1012.0 |
| 20260506015157 | 65 | 198 | 0.0 | 8.0 | 0.00 | 0.00 | 0.00 | 62 | 1011.7 |